Weather History for Pittsburgh Allegheny Co., PA

Change the Weather History Date:

Thursday, October 25, 2012

  Actual Average Record
Temperature  
Mean Temperature 68 °F -  
Max Temperature 81 °F 65 °F 81 °F (2012)
Min Temperature 55 °F 39 °F 32 °F (1993)
Cooling Degree Days 3    
Growing Degree Days 18 (Base 50)    
Moisture  
Dew Point 48 °F    
Average Humidity 52    
Maximum Humidity 78    
Minimum Humidity 27    
Precipitation  
Precipitation 0.00 in - - ()
Sea Level Pressure  
Sea Level Pressure 30.08 in    
Wind  
Wind Speed 7 mph (SSE)    
Max Wind Speed 12 mph    
Max Gust Speed 20 mph    
Visibility 10 miles    
Events      
Averages and records for this station are not official NWS values.
T = Trace of Precipitation, MM = Missing Value Source: NWS Daily Summary

Daily Weather History Graph

Daily Weather History Graph

Search for Another Location

Airport:

Trip Planner

Search our weather history database for the weather conditions in past years. The results will help you decide how hot, cold, wet, or windy it might be!

Date:

Astronomy

Oct. 25, 2012 Rise Set
Actual Time 7:41 AM EDT 6:24 PM EDT
Civil Twilight 7:14 AM EDT 6:52 PM EDT
Nautical Twilight 6:42 AM EDT 7:24 PM EDT
Astronomical Twilight 6:10 AM EDT 7:56 PM EDT
Moon 4:10 PM EDT (10/25) 3:36 AM EDT (10/25)
Length of Visible Light 11h 38m
Length of Day
10h 42m
Waxing Gibbous, 84% of the Moon is Illuminated
Oct 25
Waxing Gibbous
Oct 29
Full
Nov 6
Last Quarter
Nov 13
New
Nov 20
First Quarter

Hourly Weather History & Observations

Time (EDT) Temp. Dew Point Humidity Pressure Visibility Wind Dir Wind Speed Gust Speed Precip Events Conditions
12:53 AM 63.0 °F 50.0 °F 63% 30.12 in 10.0 mi South 5.8 mph - N/A   Clear
1:53 AM 60.1 °F 50.0 °F 69% 30.12 in 9.0 mi SSE 5.8 mph - N/A   Clear
2:53 AM 61.0 °F 50.0 °F 67% 30.11 in 10.0 mi South 5.8 mph - N/A   Clear
3:53 AM 57.9 °F 50.0 °F 75% 30.10 in 9.0 mi South 6.9 mph - N/A   Clear
4:53 AM 59.0 °F 48.0 °F 67% 30.09 in 10.0 mi South 5.8 mph - N/A   Clear
5:53 AM 59.0 °F 48.9 °F 69% 30.10 in 10.0 mi South 5.8 mph - N/A   Clear
6:53 AM 57.0 °F 48.9 °F 74% 30.11 in 10.0 mi SSE 5.8 mph - N/A   Clear
7:53 AM 55.9 °F 48.9 °F 77% 30.12 in 7.0 mi SSE 5.8 mph - N/A   Clear
8:53 AM 57.9 °F 51.1 °F 78% 30.13 in 7.0 mi SSE 5.8 mph - N/A   Clear
9:53 AM 63.0 °F 50.0 °F 63% 30.13 in 6.0 mi SE 3.5 mph - N/A   Haze
10:53 AM 70.0 °F 51.1 °F 51% 30.12 in 10.0 mi South 4.6 mph - N/A   Haze
11:53 AM 73.4 °F 50.0 °F 44% 30.12 in 10.0 mi South 9.2 mph - N/A   Haze
12:53 PM 78.1 °F 48.0 °F 35% 30.09 in 10.0 mi South 8.1 mph - N/A   Clear
1:53 PM 81.0 °F 46.0 °F 29% 30.06 in 10.0 mi South 11.5 mph 17.3 mph N/A   Clear
2:53 PM 81.0 °F 44.1 °F 27% 30.04 in 10.0 mi SSW 9.2 mph - N/A   Clear
3:53 PM 81.0 °F 44.1 °F 27% 30.04 in 10.0 mi South 8.1 mph 19.6 mph N/A   Clear
4:53 PM 81.0 °F 44.1 °F 27% 30.02 in 10.0 mi South 8.1 mph - N/A   Clear
5:53 PM 79.0 °F 44.1 °F 29% 30.02 in 10.0 mi South 4.6 mph - N/A   Clear
6:53 PM 77.0 °F 44.1 °F 31% 30.03 in 10.0 mi South 5.8 mph - N/A   Clear
7:53 PM 73.0 °F 46.0 °F 38% 30.04 in 10.0 mi SSE 6.9 mph - N/A   Clear
8:53 PM 71.6 °F 48.2 °F 43% 30.03 in 10.0 mi SSE 8.1 mph - N/A   Clear
9:53 PM 70.0 °F 50.0 °F 49% 30.04 in 10.0 mi SSE 8.1 mph - N/A   Clear
10:53 PM 68.0 °F 51.1 °F 55% 30.04 in 10.0 mi SSE 9.2 mph - N/A   Clear
11:53 PM 66.9 °F 52.0 °F 59% 30.04 in 10.0 mi SSE 8.1 mph - N/A   Clear